> Flugplatz > 
Stacks Image 3
Aktuelle METAR Daten (Memmingen, Friedrichshafen, Laupheim):
2017/11/24 08:50 EDJA 242050Z 20006KT CAVOK 08/05 Q1015
2017/11/24 09:20 EDNY 242120Z VRB01KT 9999 FEW039 OVC120 07/05 Q1015
2017/11/24 09:20 ETHL 242120Z 27003KT 9999 -RA BKN031 09/06 Q1015 BLU
Sicherheits- und Servicehinweise:

Bitte achten Sie beim Anflug auf mögliche Fall­schirm­springer auf der Nordseite des Platzes, kontaktieren Sie zur Sicherheit den Flugleiter auf Leutkirch INFO 122,875.

Zollabfertigung:
für Ein- und Ausflug bei Voranmeldung mindestens 3 Stunden, nur Personenverkehr – keine Warenabfertigung.

Günstig Tanken:
AvGas 100LL · Jet A1l

Aktuelles:

Winterflugbetrieb:
vom 01.11.2017 bis 14.03.2018.
Täglich 10:00-17:00 (loc)
So+HOL 10:30-17:00 (loc)
Closed 25.12.17 + 01.01.18

Weitere Informationen finden Sie in unserem Newsbereich.

Nutzen Sie unsere Online-Anmeldung zur Zoll- und Passkontrolle.